Regional Weather Roundup
Issued by NWS

Home | Current Version | Previous Version | Graphics & Text | Print | Product List | Glossary Off
Versions: 1 2 3 4 5 6 7 8 9 10 11 12 13 14 15 16 17 18 19 20 21 22 23 24 25 26 27 28 29 30 31 32 33 34 35 36 37 38 39 40 41 42 43 44 45 46 47 48 49 50

000
ASUS43 KMPX 041010
RWRMN
WEATHER ROUNDUP FOR MINNESOTA
NATIONAL WEATHER SERVICE TWIN CITIES/CHANHASSEN MN
500 AM CDT MON MAY 04 2015


NOTE: "FAIR" INDICATES FEW OR NO CLOUDS BELOW 12,000 FEET WITH NO
SIGNIFICANT WEATHER AND/OR OBSTRUCTIONS TO VISIBILITY. N/A MEANS
CURRENT SKY AND/OR WEATHER CONDITIONS ARE NOT AVAILABLE.

MNZ060>063-068>070-041100-
   Twin Cities Metro

CITY           SKY/WX    TMP DP  RH WIND       PRES   REMARKS
TWIN CITIES    PTCLDY    53  35  50 N12       30.05R
ST PAUL        CLEAR     53  36  52 N8        30.05R
CRYSTAL        CLEAR     50  35  56 CALM      30.05R
BLAINE         CLEAR     52  36  54 CALM      30.05R
LAKEVILLE      CLEAR     52  39  62 N6        30.04R
EDEN PRAIRIE   CLEAR     53  34  48 N9        30.04R
SOUTH ST PAUL  CLEAR     54  36  51 N7        30.04R
LAKE ELMO      FAIR      50  37  62 N5        30.05R
$$
MNZ001>005-007-008-013>017-022>024-027-028-041100-
   Northwest Minnesota

CITY           SKY/WX    TMP DP  RH WIND       PRES   REMARKS
BEMIDJI        CLEAR     30  27  90 CALM      30.12R
HALLOCK        PTCLDY    34  30  86 CALM      30.14R
ROSEAU         CLEAR     32  28  86 CALM      30.14R
WARROAD        CLEAR     32  28  86 CALM      30.13R
THIEF RVR FALL CLEAR     41  34  75 CALM      30.14R
CROOKSTON      CLEAR     43  34  70 E8        30.14R
DETROIT LAKES  CLEAR     43  34  70 CALM      30.12R
MOORHEAD       CLEAR     37  27  65 N5        30.13R
PARK RAPIDS    CLEAR     36  30  79 CALM      30.11R
MAHNOMEN       FAIR      33  27  79 CALM      30.12R
$$
MNZ006-009>011-018-025>026-041100-
   North Central Minnesota

CITY           SKY/WX    TMP DP  RH WIND       PRES   REMARKS
BAUDETTE       CLEAR     34  33  96 W7        30.12R WCI  28
FLAG ISLAND    CLEAR     41  37  87 NW7       30.11R
INTL FALLS     CLEAR     31  30  96 W3        30.08R
WASKISH        FAIR      36  34  93 CALM      30.12R
BIG FORK       CLEAR     30  27  86 CALM      30.10R
LONGVILLE      CLEAR     36  34  93 CALM      30.10R
GRAND RAPIDS   CLEAR     37  30  75 CALM      30.09R
CRANE LAKE     CLEAR     28  27  93 CALM      30.09R
ORR            CLEAR     34  30  86 CALM      30.05S
COOK           CLEAR     30  30 100 CALM      30.08R
WALKER         FAIR      34  31  91 W3        30.11R
$$
MNZ012-019>021-037-041100-
   Northeast Minnesota

CITY           SKY/WX    TMP DP  RH WIND       PRES   REMARKS
DULUTH         CLEAR     45  34  65 N8        30.05R
ELY            CLEAR     34  30  86 CALM      30.05S
HIBBING        CLEAR     36  32  85 NW3       30.07R
EVELETH        CLEAR     37  32  81 CALM      30.07R
DULUTH HARBOR  CLEAR     48  37  66 CALM      30.07R
TWO HARBORS    CLEAR     48  37  66 NW3       30.01R
SILVER BAY     CLEAR     48  36  61 NW9       29.99S
GRAND MARAIS     N/A     50  37  61 N13G28    29.95S
G MARAIS ARPRT CLEAR     41  34  75 NW7       29.99S
$$
MNZ029>031-032-039>041-046>048-054>057-064-041100-
   West Central Minnesota

CITY           SKY/WX    TMP DP  RH WIND       PRES   REMARKS
FERGUS FALLS   CLEAR     45  30  57 NE6       30.11R
WHEATON        CLEAR     39  28  65 CALM      30.13R
MORRIS         CLEAR     39  27  60 NW7       30.09R
ALEXANDRIA     CLEAR     46  33  60 NE6       30.10R
ELBOW LAKE     FAIR      49  35  57 NE5       30.09R
WADENA         CLEAR     36  30  80 N3        30.10R
GLENWOOD       CLEAR     45  30  57 VRB6      30.10R
APPLETON       CLEAR     41  28  60 CALM      30.09R
BENSON         CLEAR     39  30  70 N3        30.08R
ORTONVILLE     CLEAR     45  32  61 NW6       30.10R
MADISON        CLEAR     43  28  56 NW6       30.10R
WILLMAR        FAIR      48  34  57 NE7       30.08R
$$
MNZ033>034-036-042>043-049>051-058-059-041100-
   Central Minnesota

CITY           SKY/WX    TMP DP  RH WIND       PRES   REMARKS
ST CLOUD       CLEAR     41  32  70 CALM      30.07R
SAUK CENTRE    FAIR      43  32  64 CALM      30.10R
PAYNESVILLE    CLEAR     42  31  64 N5        30.09R
AITKIN         CLEAR     34  28  80 CALM      30.08R
PINE RIVER     CLEAR     34  30  86 CALM      30.13R
BRAINERD       CLEAR     38  34  85 CALM      30.09R
STAPLES        CLEAR     39  30  70 CALM      30.10R
LONG PRAIRIE   FAIR      43  32  65 CALM      30.10R
LITTLE FALLS   CLEAR     41  32  70 CALM      30.08S
LITCHFIELD     CLEAR     52  34  50 N5        30.08R
BUFFALO        CLEAR     50  34  54 N6        30.07R
MAPLE LAKE     CLEAR     47  37  68 N5        30.07R
$$
MNZ037-044-045-052-053-041100-
   East Central Minnesota

CITY           SKY/WX    TMP DP  RH WIND       PRES   REMARKS
PRINCETON      CLEAR     46  34  61 CALM      30.07R
MORA           CLEAR     45  32  61 CALM      30.08R
CAMBRIDGE      CLEAR     50  34  53 N3        30.05R
RUSH CITY      PTCLDY    47  33  59 N5        30.06R
MOOSE LAKE     CLEAR     45  34  65 N6        30.06R
HINCKLEY       FAIR      46  34  61 N6        30.07R
CLOQUET        CLEAR     41  32  70 NW3       30.07R
MCGREGOR       CLEAR     37  34  87 N5        30.09R
$$
MNZ071>073-080-081-089-090-097-098-041100-
   Southwest Minnesota

CITY           SKY/WX    TMP DP  RH WIND       PRES   REMARKS
MONTEVIDEO     CLEAR     45  28  53 N5        30.09R
GRANITE FALLS  CLEAR     41  28  59 NW6       30.09R
CANBY          CLEAR     42  28  59 NW7       30.11R
MARSHALL       CLEAR     43  25  49 NW9       30.09R
REDWOOD FALLS  CLEAR     50  30  46 N5        30.06R
OLIVIA         CLEAR     41  28  60 N7        30.06R
PIPESTONE      PTCLDY    48  27  43 N6        30.08R
WINDOM         PTCLDY    48  28  46 N10       30.06R
WORTHINGTON    MOCLDY    46  27  46 N9        30.08R
JACKSON        MOCLDY    52  28  40 N8        30.05R
TRACY          CLEAR     47  28  47 NW10      30.09R
SLAYTON        PTCLDY    47  27  46 N9        30.09R
$$
MNZ065>067-074>077-082>085-091>093-041100-
   South Central Minnesota

CITY           SKY/WX    TMP DP  RH WIND       PRES   REMARKS
MANKATO          N/A    N/A N/A N/A MISG        N/A
NEW ULM        CLEAR     50  30  46 N6        30.05R
ST JAMES       PTCLDY    48  32  53 NW10      30.06R
FAIRMONT       MOCLDY    52  32  46 N12       30.03R
GLENCOE        CLEAR     50  36  58 N5        30.06R
FARIBAULT      PTCLDY    55  39  54 N10G17    30.04R
OWATONNA       PTCLDY    52  45  76 N6        30.02R
WASECA         PTCLDY    52  45  76 N8        30.04R
ALBERT LEA     PTCLDY    54  46  76 N10       30.00S
$$
MNZ078>079-086>088-094>096-041100-
   Southeast Minnesota

CITY           SKY/WX    TMP DP  RH WIND       PRES   REMARKS
ROCHESTER      PTCLDY    52  48  86 N12       30.01R
RED WING       CLEAR     55  37  50 NE9G16    30.01R
STANTON        CLEAR     50  42  74 N7        30.02R
DODGE CENTER   CLEAR     52  46  82 N8        30.02R
WINONA         PTCLDY    55  54  94 NW3       29.99R
AUSTIN         PTCLDY    54  48  82 N7        29.99R
PRESTON        MOCLDY    53  51  93 N5        30.01R
$$
ABBREVIATIONS USED IN REMARKS
   TC - TEMPERATURES IN CELSIUS
  WCI - WIND CHILL INDEX
   HX - HEAT INDEX
  VSB - VISIBILITY
$$


USA.gov is the U.S. government's official web portal to all federal, state and local government web resources and services.